Starlink 32485

operational
NORAD ID: 62143 Int'l Des: 2024-224 Owner: SPXS Country: US Constellation: starlink
LEOCIRCULAR

Über Starlink 32485

Beschreibung wird geladen...

Live-Position

3D-Globus wird geladen...

Nächste Überflüge

Höhenverlauf

Altitude vs Time

uPlot chart will show altitude changes over time

Zweizeiliger Elementsatz

1 62143U 24224E 25305.33834375 .00045269 00000-0 16401-2 0 9991
2 62143 43.0074 166.1453 0002251 283.8438 76.2163 15.27667189 52383
Epoch: 1. Nov. 2025 • Age: 25 hours

Aktueller Status

Höhe 487.1 km
Geschwindigkeit 7.63 km/s
Subsatellitenpunkt 43.13°N, 61.34°E
Startdatum 30. Nov. 2024
Alter 0.9 years
Typ internet

Technische Details

Klassifizierung Payload
Masse 730.00 kg
Trockenmasse 700.00 kg
Gesamtmasse 730.00 kg
Länge 0.30 m
Durchmesser 4.10 m
Spannweite 29.00 m
Form Box + pan
Hersteller SPXS
Bus-Typ Starlink V2M
Phasenstatus In Orbit
Besitzer/Staat SPXS/US

Große Konstellationen

Loading constellations...